Home   Weather   Pointe aux Basques   Past weeks
Flag for Saint Pierre and Miquelon

Past Weather in Pointe aux Basques, Saint Pierre and Miquelon — Yesterday and Last 2 Weeks

Currently: 63 °F. Dense fog. (Weather station: Saint-Pierre, Saint Pierre and Miquelon). See more current weather

Past Weather in Pointe aux Basques — Graph

°F

Pointe aux Basques Temperature Yesterday

Maximum temperature yesterday: 63 °F (at 12:00 pm)
Minimum temperature yesterday: 57 °F (at 12:00 am)
Average temperature yesterday: 59 °F

High & Low Weather Summary for the Past Weeks

 TemperatureHumidityPressure
High77 °F (Jul 8, 2:30 pm)100% (Jul 1, 1:00 pm)30.18 "Hg (Jul 1, 1:00 pm)
Low50 °F (Jul 4, 9:30 pm)56% (Jul 3, 7:00 pm)29.80 "Hg (Jul 10, 6:00 am)
Average58 °F95%29.98 "Hg
* Reported Jul 1 1:00 pm — Jul 16 1:00 pm, Pointe aux Basques. Weather by CustomWeather, © 2024

Note: Actual official high and low records may vary slightly from our data, if they occured in-between our weather recording intervals... More about our weather records

Pointe aux Basques Weather History for the Previous 24 Hours

Scroll right to see more
 ConditionsComfort  
Time TempWeatherWind HumidityBarometerVisibility
1:00 pm
Tue, Jul 16
63 °FDense fog.7 mph94%29.89 "Hg1 mi
12:30 pm63 °FFog.9 mph94%29.89 "Hg0 mi
11:30 am63 °FFog.14 mph94%29.92 "Hg1 mi
11:00 am64 °FLow clouds.14 mph88%29.89 "HgN/A
10:30 am64 °FPartly sunny.8 mph88%29.89 "HgN/A
10:00 am64 °FScattered clouds.7 mph88%29.89 "HgN/A
9:30 am63 °FPassing clouds.6 mph94%29.89 "HgN/A
9:00 am63 °FSunny.6 mph100%29.89 "Hg10 mi
8:30 am61 °FClear.6 mph100%29.89 "Hg5 mi
8:00 am61 °FClear.7 mph100%29.89 "Hg4 mi
7:30 am61 °FClear.6 mph100%29.89 "Hg6 mi
7:00 am59 °FClear.6 mph100%29.86 "Hg6 mi
6:30 am59 °FClear.5 mph100%29.86 "Hg6 mi
6:00 am59 °FClear.7 mph100%29.86 "Hg5 mi
5:00 am59 °FClear.9 mph100%29.86 "Hg10 mi
4:30 am57 °FClear.8 mph100%29.86 "Hg4 mi
4:00 am57 °FPassing clouds.7 mph100%29.86 "Hg6 mi
3:30 am57 °FLow clouds.5 mph100%29.86 "HgN/A
3:00 am57 °FLow clouds.5 mph100%29.86 "Hg4 mi
2:30 am57 °FFog.3 mph100%29.86 "Hg1 mi
2:00 am57 °FFog.2 mph100%29.86 "Hg0 mi
1:30 am57 °FFog.2 mph100%29.89 "Hg0 mi
1:00 am57 °FFog.3 mph100%29.89 "Hg1 mi
12:30 am57 °FFog.3 mph100%29.89 "Hg0 mi
12:00 am57 °FFog.5 mph100%29.89 "Hg0 mi
11:30 pm
Mon, Jul 15
57 °FFog.3 mph100%29.89 "Hg0 mi
11:00 pm57 °FFog.3 mph100%29.89 "Hg1 mi
10:30 pm57 °FLow clouds.3 mph100%29.89 "Hg1 mi
10:00 pm57 °FFog.6 mph100%29.89 "Hg1 mi
9:30 pm57 °FFog.5 mph100%29.89 "Hg0 mi
9:00 pm57 °FFog.7 mph100%29.86 "Hg0 mi
8:30 pm59 °FFog.7 mph100%29.89 "Hg0 mi
8:00 pm59 °FFog.8 mph100%29.86 "Hg0 mi
7:30 pm59 °FFog.7 mph100%29.86 "Hg0 mi
7:00 pm59 °FFog.9 mph94%29.86 "Hg1 mi
6:30 pm59 °FFog.9 mph100%29.86 "Hg1 mi
6:00 pm59 °FDense fog.9 mph94%29.86 "Hg1 mi
5:30 pm61 °FDense fog.9 mph94%29.89 "Hg1 mi
5:00 pm61 °FFog.8 mph88%29.89 "Hg2 mi
4:30 pm61 °FLow clouds.8 mph94%29.89 "HgN/A
4:00 pm61 °FLow clouds.7 mph88%29.89 "HgN/A
3:30 pm61 °FLow clouds.10 mph88%29.89 "HgN/A
3:00 pm63 °FLow clouds.6 mph88%29.89 "HgN/A
2:30 pm63 °FLow clouds.7 mph83%29.89 "HgN/A
2:00 pm61 °FLow clouds.7 mph88%29.89 "HgN/A
Weather by CustomWeather, © 2024

See weather overview